User: anonymous   Login
Location: Brno
(49.2000°N, 16.6330°E)
Time: 04:18:18
(UTC+01:00)
Language:

NOSS 3-4 (A) - Orbit

View from above orbital plane
View from above orbital plane
View from above satellite
View from above satellite

Ground track
Ground track

The orbit data is extracted from the following two-line orbital elements,

1 31701U 07027A   18047.21283355 0.00000030  00000-0  47602-4 0    06
2 31701  63.4002 181.2275 0213000  22.6232 337.3768 13.40747385    07
Epoch (UTC): 16 February 2018 05:06:28
Eccentricity: 0.0213000
inclination: 63.4002°
perigee height: 947 km
apogee height: 1266 km
right ascension of ascending node: 181.2275°
argument of perigee: 22.6232°
revolutions per day: 13.40747385
mean anomaly at epoch: 337.3768°
orbit number at epoch: 0

The dashed part of the orbit path shows where the satellite is in the earth's shadow,  

DLR